Location: �perlecques
(50.8057°N, 2.1521°E)
Time: 08:18:15
(UTC+00:00)

STARS - Pass Details

Date: 03 April 2023
Orbit: 616 x 630 km, 98.1° (Epoch: 03 June)

Event Time Altitude Azimuth Distance (km) Brightness Sun altitude
Rises 00:10:40 0° 7° (N) 2,917 ? -34.0°
Reaches altitude 10° 00:13:02 10° 357° (N) 2,008 ? -33.9°
Enters shadow 00:14:52 21° 340° (NNW) 1,408 ? -33.9°
